Flag for U.S.A. Weather past 2 weeks in Buffalo, New York, U.S.A.

Now
59 °F

Fog.


Feels Like: 58 °F
Forecast: 60 / 71 °F
Wind: 7 mph from Northeast

Location: Greater Buffalo International Airport

Current Time: Oct 1, 2014 at 5:03:46 AM

Latest Report: Oct 1, 2014 at 3:54 AM


Visibility: 6 mi

Pressure: 30.00 "Hg

Humidity: 87%

Dew point: 55 °F

Location of BuffaloLocation

Historic Weather in Buffalo — Graph

°F

Buffalo temperature yesterday

Maximum temperature yesterday: 73 °F (at 2:54 PM)
Minimum temperature yesterday: 54 °F (at 6:54 AM)
Average temperature yesterday: 62 °F

Past Weeks' High & Low Weather Summary

 TemperatureHumidityPressure
High79 °F (Sep 27, 3:54 PM)93% (Sep 16, 5:54 AM)30.51 "Hg (Sep 16, 5:54 AM)
Low41 °F (Sep 19, 3:54 AM)36% (Sep 27, 4:54 PM)29.58 "Hg (Sep 21, 12:54 PM)
Average61 °F70%30.12 "Hg
* Reported Sep 16 3:54 AM — Oct 1 3:54 AM, Buffalo, Weather by CustomWeather, © 2014

Note: Actual official high and low records may vary slightly from our data, if they occured in-between our weather recording intervals... More about our weather records

Advertising

Buffalo weather history for previous 24 hours

 ConditionsComfort  
Time TempWeatherWind HumidityBarometerVisibility
3:54 AM
Oct 1
59 °FFog.7 mph87%30.00 "Hg6 mi
2:54 AM59 °FMostly cloudy.9 mph90%29.99 "Hg7 mi
1:54 AM60 °FLow clouds.10 mph90%29.98 "Hg7 mi
12:54 AM61 °FFog.7 mph87%29.98 "Hg6 mi
11:54 PM
Sep 30
61 °FFog.6 mph87%29.98 "Hg4 mi
10:54 PM60 °FFog.6 mph90%29.97 "Hg3 mi
9:54 PM59 °FFog.7 mph90%29.96 "Hg6 mi
8:54 PM62 °FOvercast.6 mph83%29.95 "Hg7 mi
7:54 PM62 °FBroken clouds.7 mph83%29.93 "Hg7 mi
6:54 PM64 °FPartly sunny.6 mph78%29.92 "Hg8 mi
5:54 PM67 °FBroken clouds.10 mph73%29.90 "Hg10 mi
4:54 PM72 °FMore clouds than sun.7 mph57%29.87 "Hg10 mi
3:54 PM72 °FPartly sunny.6 mph55%29.88 "Hg10 mi
2:54 PM73 °FBroken clouds.6 mph53%29.88 "Hg10 mi
1:54 PM72 °FBroken clouds.6 mph55%29.88 "Hg10 mi
12:54 PM71 °FBroken clouds.No wind55%29.89 "Hg10 mi
11:54 AM70 °FPartly sunny.No wind57%29.89 "Hg10 mi
10:54 AM67 °FPartly sunny.3 mph66%29.89 "Hg10 mi
9:54 AM63 °FSunny.3 mph73%29.89 "Hg10 mi
8:54 AM58 °FPassing clouds.6 mph81%29.89 "Hg10 mi
7:54 AM54 °FPartly cloudy.6 mph90%29.89 "Hg9 mi
6:54 AM54 °FPassing clouds.3 mph90%29.88 "Hg10 mi
5:54 AM55 °FPassing clouds.5 mph87%29.88 "Hg10 mi
Weather by CustomWeather, © 2014

See weather overviewHow to use our weather pages